{"data":{"norad_id":66093,"epoch":"2026-05-25T03:50:43.257696Z","epoch_age_seconds":57636,"freshness":"FRESH","line1":"1 66093U 25236H   26145.16022289  .00009567  00000+0  33465-3 0  9990","line2":"2 66093  53.1603 108.5957 0001069  90.8908 269.2215 15.30204779 34652","mean_motion":15.30204779,"eccentricity":0.0001069,"inclination_deg":53.1603,"raan_deg":108.5957,"arg_perigee_deg":90.8908,"mean_anomaly_deg":269.2215,"bstar":0.00033465,"rev_number":3465,"period_min":94.105051804965,"perigee_km":474.46817841304,"apogee_km":475.93342203472,"semimajor_km":6853.3378002239,"source":"CELESTRAK","updated_at":"2026-05-25T13:38:21.028187Z"}}